Regional Weather Roundup
Issued by NWS Cleveland, OH

Home | Current Version | Previous Version | Text Only | Print | Product List | Glossary Off
Versions: 1 2 3 4 5 6 7 8 9 10 11 12 13 14 15 16 17 18 19 20 21 22 23 24 25 26 27 28 29 30 31 32 33 34 35 36 37 38 39 40 41 42 43 44 45 46 47 48 49 50

000
ASUS41 KCLE 041910
RWRCLE
OHIO REGIONAL WEATHER ROUNDUP
NATIONAL WEATHER SERVICE CLEVELAND, OH
300 PM EDT FRI SEP 04 2015

NOTE: "FAIR" INDICATES FEW OR NO CLOUDS BELOW 12,000 FEET WITH NO
SIGNIFICANT WEATHER AND/OR OBSTRUCTIONS TO VISIBILITY.

OHZ001>008-015>018-024>027-034-035-043-044-042000-
   NORTHWEST OHIO

CITY           SKY/WX    TMP DP  RH WIND       PRES   REMARKS
DEFIANCE       CLOUDY    78  68  71 VRB3      30.01F
FINDLAY        PTSUNNY   78  65  63 W23G35    30.02S
TOLEDO EXPRESS PTSUNNY   85  71  63 W10       30.00S HX  90
TOLEDO EXEC    PTSUNNY   87  71  58 W7        30.00F HX  93
LIMA           TSTM      67  67 100 MISG      30.14R VSB 1/2
$$

OHZ009>014-019>023-028>033-038-089-042000-
   NORTHEAST OHIO

CITY           SKY/WX    TMP DP  RH WIND       PRES   REMARKS
CLE-HOPKINS    MOSUNNY   83  66  56 S9        30.06F
CLE-LAKEFRONT  MOSUNNY   81  71  71 N9        30.03S
CUY CO. ARPT   PTSUNNY   84  70  61 SE12      30.07R
LORAIN-ELYRIA  MOSUNNY   81  68  64 SW8G17    30.05S
ASHTABULA      PTSUNNY   78  67  68 CALM      30.09R
AKRON-CANTON   CLOUDY    81  64  56 S10       30.08F
WOOSTER        CLOUDY    75  67  76 S3        30.08S
MANSFIELD      CLOUDY    81  67  62 S13       30.07S
YOUNGSTOWN     CLOUDY    78  66  66 CALM      30.09S
$$

OHZ042-051>053-060>062-070>072-077>081-042000-
  SOUTHWEST OHIO

CITY           SKY/WX    TMP DP  RH WIND       PRES   REMARKS
CINC-COVINGTON MOSUNNY   92  67  43 VRB5      30.04F HX  95
CINC-LUNKEN    SUNNY     90  67  46 CALM      30.02F HX  93
HAMILTON       SUNNY     93  67  42 VRB3      30.03F HX  96
DAYTON         PTSUNNY   81  65  58 S6        30.05F
WRIGHT-PAT AFB PTSUNNY   76  68  77 E5        30.04F
DAYTON GENERAL PTSUNNY   89  67  47 SW10      30.03F HX  92
WILMINGTON     MOSUNNY   89  67  47 S8        30.04F HX  92
$$

OHZ036-037-039>041-045>050-054>059-063>069-073>076-082>088-042000-
  CENTRAL AND SOUTHEAST OHIO

CITY           SKY/WX    TMP DP  RH WIND       PRES   REMARKS
COLUMBUS       PTSUNNY   84  70  62 SE10      30.04F
OSU AIRPORT    MOSUNNY   87  70  56 SE8       30.04F HX  92
BOLTON FIELD   SUNNY     84  72  65 S9        30.06S
RICKENBACK AFB MOSUNNY   87  69  55 S5        30.04F HX  91
NEWARK         CLOUDY    85  68  56 SE10      30.06F
MARION         MOSUNNY   84  70  62 S10       30.05S
LANCASTER      MOSUNNY   86  70  58 SE3       30.06F HX  90
ZANESVILLE     CLOUDY    80  66  62 SE8       30.08F
NEW PHILLY     CLOUDY    75  69  81 SE5       30.09S
$$



USA.gov is the U.S. government's official web portal to all federal, state and local government web resources and services.